Ambler, AK

12:35 PM AKDT on September 23, 2019 (GMT -0800)
Ambler

Weather History for PAFM - August, 2019

Change the Weather History Date:

Saturday, August 24, 2019

  Actual Average Record
Temperature  
Mean Temperature 48 °F -  
Max Temperature 60 °F 55 °F 70 °F (1982)
Min Temperature 37 °F 41 °F 29 °F (1983)
Degree Days  
Heating Degree Days 16    
Moisture  
Dew Point 35 °F    
Average Humidity 59    
Maximum Humidity 93    
Minimum Humidity 44    
Precipitation  
Precipitation 0.00 in - - ()
Sea Level Pressure  
Sea Level Pressure 29.86 in    
Wind  
Wind Speed 6 mph (SW)    
Max Wind Speed 10 mph    
Max Gust Speed 23 mph    
Visibility 10 miles    
Events      
Averages and records for this station are not official NWS values.
T = Trace of Precipitation, MM = Missing Value Source: NWS Daily Summary

Daily Weather History Graph

Daily Weather History Graph

Search for Another Location

Airport or City:

Astronomy

Aug. 24, 2019 Rise Set
Actual Time 6:33 AM AKDT 10:31 PM AKDT
Civil Twilight 5:23 AM AKDT 11:39 PM AKDT
Nautical Twilight 3:06 AM AKDT 2:11 AM AKDT
Astronomical Twilight Sun does not set Sun does not set
Moon 11:22 PM AKDT (8/24) 7:52 PM AKDT (8/24)
Length of Visible Light 18h 16m
Length of Day
15h 57m
Last Quarter, 37% of the Moon is Illuminated
Aug 24
Last Quarter
Aug 30
New
Sep 5
First Quarter
Sep 13
Full
Sep 21
Last Quarter

Hourly Weather History & Observations

Time (AKDT) Temp. Windchill Dew Point Humidity Pressure Visibility Wind Dir Wind Speed Gust Speed Precip Events Conditions
12:56 AM 46.9 °F - 26.1 °F 44% 29.82 in 10.0 mi North 10.4 mph 23.0 mph N/A   Clear
1:56 AM 44.1 °F 40.1 °F 27.0 °F 51% 29.83 in 10.0 mi NNE 6.9 mph - N/A   Clear
2:56 AM 43.0 °F 38.8 °F 27.0 °F 53% 29.83 in 10.0 mi Variable 6.9 mph - N/A   Clear
3:56 AM 39.9 °F 37.8 °F 27.0 °F 60% 29.85 in 10.0 mi NW 3.5 mph - N/A   Clear
4:56 AM 42.1 °F 39.2 °F 27.0 °F 55% 29.85 in 10.0 mi North 4.6 mph - N/A   Clear
6:56 AM 37.0 °F 33.3 °F 30.0 °F 76% 29.87 in 10.0 mi WNW 4.6 mph - N/A   Clear
7:56 AM 37.9 °F - 30.0 °F 73% 29.88 in 10.0 mi Calm Calm - N/A   Clear
8:56 AM 42.1 °F - 32.0 °F 67% 29.88 in 10.0 mi Calm Calm - N/A   Clear
9:56 AM 43.0 °F 41.3 °F 32.0 °F 65% 29.88 in 10.0 mi ENE 3.5 mph - N/A   Clear
10:56 AM 48.0 °F - 33.1 °F 56% 29.88 in 10.0 mi Calm Calm - N/A   Clear
11:56 AM 50.0 °F - 33.1 °F 52% 29.89 in 10.0 mi SSW 3.5 mph - N/A   Clear
12:56 PM 53.1 °F - 33.1 °F 47% 29.88 in 10.0 mi South 6.9 mph - N/A   Partly Cloudy
1:56 PM 55.0 °F - 35.1 °F 47% 29.88 in 10.0 mi Variable 5.8 mph - N/A   Clear
2:56 PM 57.0 °F - 36.0 °F 45% 29.88 in 10.0 mi SSW 6.9 mph - N/A   Clear
3:56 PM 57.9 °F - 36.0 °F 44% 29.87 in 10.0 mi SW 5.8 mph - N/A   Clear
4:56 PM 59.0 °F - 39.9 °F 49% 29.85 in 10.0 mi WSW 8.1 mph - N/A   Clear
5:56 PM 59.0 °F - 39.9 °F 49% 29.84 in 10.0 mi SW 6.9 mph - N/A   Clear
6:56 PM 60.1 °F - 39.0 °F 46% 29.85 in 10.0 mi SW 8.1 mph - N/A   Clear
7:56 PM 57.0 °F - 43.0 °F 59% 29.84 in 10.0 mi SSW 5.8 mph - N/A   Clear
8:56 PM 57.0 °F - 44.1 °F 62% 29.84 in 10.0 mi SW 5.8 mph - N/A   Clear
9:56 PM 52.0 °F - 44.1 °F 74% 29.84 in 10.0 mi SW 4.6 mph - N/A   Clear
10:56 PM 48.9 °F - 43.0 °F 80% 29.85 in 10.0 mi Calm Calm - N/A   Clear
11:56 PM 45.0 °F 43.5 °F 43.0 °F 93% 29.85 in 10.0 mi South 3.5 mph - N/A   Clear